Location: Wheeling
(40.0640°N, 80.7210°W)
Time: 19:50:04
(UTC-05:00)

ITAMSAT 1 - Pass Details

Date: 23 October 2021
Orbit: 784 x 796 km, 98.9° (Epoch: 01 December)

Event Time Altitude Azimuth Distance (km) Brightness Sun altitude
Rises 19:37:18 0° 160° (SSE) 3,258 10.7 -13.3°
Reaches altitude 10° 19:39:36 10° 159° (SSE) 2,334 9.9 -13.7°
Maximum altitude 19:44:45 76° 74° (ENE) 811 7.6 -14.7°
Drops below altitude 10° 19:49:56 10° 350° (N) 2,355 10.2 -15.7°
Sets 19:52:16 0° 348° (NNW) 3,289 11.0 -16.1°
